Aérodrome :
LOGIN :

S'inscrire | Disclaimer

   EN    FR    IT 

 










Légende :    VFR   VFR Marginal   IFR   IFR Intensif   IFR Très Intensif
Visi : 
Plafond : 
>= 8 km
>= 3000ft
5 à 8 km
1000 à 3000 ft
1500m à 5 km
500 à 1000 ft
800 à 1500m
200 à 500 ft
< 800m
< 200 ft
Symboles :   Orages  Brouillard  Fortes neiges  Fortes précipitations  Vent > 20 kt
SIGMETs :   Divers  Orages  Givrage  Turbulence  Onde Orograph.  Cendres Volcan.






- Altitude de l'aérodrome : 1766 ft


ETHL - Laupheim AB

DERNIER METAR :
  • 260320Z 36003KT 9999 VCFG MIFG FEW060 06/05 Q1032 BLU+

METARs EXPIRÉS :
  • 260220Z 00000KT 9999 MIFG FEW060 07/06 Q1032 BLU+
  • 260120Z 11001KT 9999 07/06 Q1032 BLU+

TAF TAF ETHL
Valide du 25 à 23h jusqu'au 26 à 08h UTC


252217Z 2523/2608 VRB03KT 9999 NSW FEW070



MET'MAP, la Météo Aéronautique d'un coup d'oeil ! - Copyright ORBIFLY Décembre 2007 - Disclaimer

ORBIFLY MET'MAP TEAM :

Programmation & Développement : Alexandra Zaïnal
Sur une idée originale de : Baudouin d'Aumeries
Assistance à la programmation : Marc-Olivier Méhu
Soutien technique & logistique : Manuel Goepfert

Contact : metmap@orbifly.com




SOURCES & CREDITS :

   NOAA